Voltar ao catálogo

SL-12 R/B(2)

AtivoGEO
NORAD 23778·ROCKET BODY·🇷🇺 Russia

Lançado Jan 25, 1996 de Baikonur Cosmodrome

Loading…

TLE

AtualizadoSource: Space-Track

Época: Sep 14, 2026, 12:55 UTC

1 23778U 96005D   26257.53839737 -.00000189  00000-0  00000+0 0  9992
2 23778  15.3315 356.7268 0014074 199.4529 165.9649  0.97673130109252

Acompanhe SL-12 R/B(2) em tempo real com AllMySat

Download on the App Store